Simultaneous Nadir Overpasses (SNOs) Predictions

Prediction of SNOs between NOAA-20 and NOAA-19 Satellite Orbit:

Table of predicted SNOs for the next 14.0 days since TLE Epoch: 8/10/2024
Index Date (NOAA-20) Time (NOAA-20) Lat,Lon (NOAA-20) SZA (NOAA-20 ) Date (NOAA-19) Time (NOAA-19) Lat,Lon (NOAA-19) SZA (NOAA-19 ) Distance(km) Time Diff (sec)
1 08/10/2024 04:57:39 72.91, 96.95 57.69 08/10/2024 04:57:44 72.91, 96.95 57.69 0.17 5
2 08/10/2024 05:48:23 -72.91, -95.75 122.30 08/10/2024 05:48:41 -72.90, -95.81 122.31 2.45 18
3 08/10/2024 06:39:09 72.91, 71.56 57.72 08/10/2024 06:39:41 72.94, 71.55 57.74 3.64 32
4 08/10/2024 07:29:53 -72.92,-121.14 122.27 08/10/2024 07:30:38 -72.94,-121.21 122.26 3.13 45
5 08/10/2024 08:20:40 72.97, 46.06 57.80 08/10/2024 08:21:38 72.98, 46.14 57.80 2.95 58
6 08/10/2024 09:11:24 -72.97,-146.63 122.19 08/10/2024 09:12:35 -72.97,-146.61 122.20 0.59 71
7 08/10/2024 10:02:19 73.43, 19.68 58.33 08/10/2024 10:03:28 73.37, 21.54 58.15 59.41 69



Historial Predications of SNOs between NOAA-20 and NOAA-19
